Weather History for Marion, SC

Change the Weather History Date:

Saturday, September 15, 2012

  Actual Average (KFLO) Record (KFLO)
Temperature  
Mean Temperature 75 °F 75 °F  
Max Temperature 86 °F 85 °F 99 °F (1980)
Min Temperature 64 °F 65 °F 51 °F (1985)
Degree Days  
Heating Degree Days 0 0  
Month to date heating degree days 0  
Since 1 July heating degree days 0  
Cooling Degree Days 10 10  
Month to date cooling degree days 173  
Year to date cooling degree days 1843  
Growing Degree Days 25 (Base 50)    
Moisture  
Dew Point 65 °F    
Average Humidity 79    
Maximum Humidity 100    
Minimum Humidity 40    
Precipitation  
Precipitation 0.00 in 0.12 in 3.72 in (1999)
Month to date precipitation 1.94  
Year to date precipitation 32.42  
Sea Level Pressure  
Sea Level Pressure 30.12 in    
Wind  
Wind Speed 1 mph (ENE)    
Max Wind Speed 7 mph    
Max Gust Speed -    
Visibility 8 miles    
Events Fog    
T = Trace of Precipitation, MM = Missing Value Source: NWS Daily Summary

Daily Weather History Graph

Daily Weather History Graph

Search for Another Location

Airport:

Trip Planner

Search our weather history database for the weather conditions in past years. The results will help you decide how hot, cold, wet, or windy it might be!

Date:

Astronomy

Sep. 15, 2012 Rise Set
Actual Time 7:00 AM EDT 7:23 PM EDT
Civil Twilight 6:35 AM EDT 7:48 PM EDT
Nautical Twilight 6:06 AM EDT 8:17 PM EDT
Astronomical Twilight 5:36 AM EDT 8:47 PM EDT
Moon 6:28 AM EDT (9/15) 6:55 PM EDT (9/15)
Length of Visible Light 13h 12m
Length of Day
12h 22m
Waning Crescent, 0% of the Moon is Illuminated
Sep 15
Waning Crescent
Sep 15
New
Sep 22
First Quarter
Sep 29
Full
Oct 8
Last Quarter

Hourly Weather History & Observations

Time (EDT) Temp. Heat Index Dew Point Humidity Pressure Visibility Wind Dir Wind Speed Gust Speed Precip Events Conditions
12:35 AM 66.2 °F - 66.2 °F 100% 30.14 in 10.0 mi Calm Calm - N/A   Clear
12:55 AM 66.2 °F - 66.2 °F 100% 30.14 in 10.0 mi Calm Calm - N/A   Clear
1:15 AM 64.4 °F - 64.4 °F 100% 30.14 in 10.0 mi Calm Calm - N/A   Clear
1:35 AM 64.4 °F - 64.4 °F 100% 30.13 in 10.0 mi Calm Calm - N/A   Clear
1:55 AM 64.4 °F - 64.4 °F 100% 30.14 in 10.0 mi Calm Calm - N/A   Clear
2:15 AM 64.4 °F - 64.4 °F 100% 30.14 in 10.0 mi Calm Calm - N/A   Clear
2:35 AM 64.4 °F - 64.4 °F 100% 30.13 in 7.0 mi Calm Calm - N/A   Clear
2:55 AM 64.4 °F - 64.4 °F 100% 30.13 in 10.0 mi Calm Calm - N/A   Clear
3:35 AM 64.4 °F - 64.4 °F 100% 30.12 in - Calm Calm - N/A   Unknown
3:55 AM 64.4 °F - 64.4 °F 100% 30.12 in 4.0 mi Calm Calm - N/A   Clear
4:15 AM 64.4 °F - 64.4 °F 100% 30.12 in 7.0 mi Calm Calm - N/A   Scattered Clouds
4:35 AM 64.4 °F - 64.4 °F 100% 30.13 in 0.8 mi Calm Calm - N/A   Overcast
4:55 AM 64.4 °F - 64.4 °F 100% 30.13 in 0.2 mi Calm Calm - N/A Fog Fog
5:15 AM 64.4 °F - 64.4 °F 100% 30.13 in 0.2 mi Calm Calm - N/A Fog Fog
5:35 AM 64.4 °F - 64.4 °F 100% 30.13 in 0.2 mi Calm Calm - N/A Fog Fog
6:55 AM 64.4 °F - 64.4 °F 100% 30.15 in - Calm Calm - N/A   Unknown
7:15 AM 64.4 °F - 64.4 °F 100% 30.15 in 0.2 mi Calm Calm - N/A Fog Fog
8:55 AM - - - N/A% 30.17 in - North - - N/A   Unknown
9:15 AM 68.0 °F - 68.0 °F 100% 30.18 in 0.2 mi Calm Calm - N/A Fog Fog
9:35 AM 68.0 °F - 68.0 °F 100% 30.18 in 0.2 mi Calm Calm - N/A Fog Fog
9:55 AM 69.8 °F - 69.8 °F 100% 30.18 in 1.2 mi Calm Calm - N/A   Overcast
10:15 AM 69.8 °F - 69.8 °F 100% 30.18 in 7.0 mi Calm Calm - N/A   Overcast
10:35 AM 71.6 °F - 71.6 °F 100% 30.18 in 10.0 mi Calm Calm - N/A   Mostly Cloudy
10:55 AM 73.4 °F - 73.4 °F 100% 30.18 in 10.0 mi Calm Calm - N/A   Scattered Clouds
11:15 AM 78.8 °F - 69.8 °F 74% 30.17 in 10.0 mi Calm Calm - N/A   Clear
11:35 AM 78.8 °F - 68.0 °F 69% 30.17 in 10.0 mi Calm Calm - N/A   Clear
11:55 AM 80.6 °F 82.3 °F 64.4 °F 58% 30.16 in 10.0 mi Calm Calm - N/A   Scattered Clouds
12:15 PM 80.6 °F 81.8 °F 62.6 °F 54% 30.16 in 10.0 mi North 6.9 mph - N/A   Clear
12:35 PM 80.6 °F 82.3 °F 64.4 °F 58% 30.15 in 10.0 mi North 4.6 mph - N/A   Scattered Clouds
12:55 PM 82.4 °F 83.4 °F 62.6 °F 51% 30.15 in 10.0 mi North 4.6 mph - N/A   Scattered Clouds
1:15 PM 82.4 °F 83.4 °F 62.6 °F 51% 30.14 in 10.0 mi North 6.9 mph - N/A   Scattered Clouds
1:35 PM 82.4 °F 83.4 °F 62.6 °F 51% 30.13 in 10.0 mi ENE 5.8 mph - N/A   Scattered Clouds
1:55 PM 86.0 °F 86.1 °F 60.8 °F 43% 30.13 in 10.0 mi ENE 4.6 mph - N/A   Scattered Clouds
2:15 PM 82.4 °F 83.4 °F 62.6 °F 51% 30.11 in 10.0 mi NNW 5.8 mph - N/A   Scattered Clouds
2:55 PM 84.2 °F 83.5 °F 57.2 °F 40% 30.10 in 10.0 mi Calm Calm - N/A   Clear
3:15 PM 84.2 °F 84.4 °F 60.8 °F 45% 30.10 in 10.0 mi NNW 3.5 mph - N/A   Clear
3:35 PM 84.2 °F 84.4 °F 60.8 °F 45% 30.09 in 10.0 mi North 6.9 mph - N/A   Clear
3:55 PM 86.0 °F 85.4 °F 59.0 °F 40% 30.09 in 10.0 mi Calm Calm - N/A   Clear
4:15 PM 86.0 °F 86.1 °F 60.8 °F 43% 30.09 in 10.0 mi NNW 4.6 mph - N/A   Clear
4:35 PM 86.0 °F 86.1 °F 60.8 °F 43% 30.08 in 10.0 mi Calm Calm - N/A   Clear
4:55 PM 84.2 °F 83.8 °F 59.0 °F 42% 30.08 in 10.0 mi Calm Calm - N/A   Scattered Clouds
5:15 PM 86.0 °F 85.4 °F 59.0 °F 40% 30.08 in 10.0 mi Calm Calm - N/A   Clear
5:35 PM 86.0 °F 85.4 °F 59.0 °F 40% 30.08 in 10.0 mi Calm Calm - N/A   Clear
5:55 PM 82.4 °F 82.9 °F 60.8 °F 48% 30.08 in 10.0 mi Calm Calm - N/A   Clear
6:15 PM 82.4 °F 83.4 °F 62.6 °F 51% 30.08 in 10.0 mi SE 3.5 mph - N/A   Clear
6:35 PM 78.8 °F - 68.0 °F 69% 30.08 in 10.0 mi Calm Calm - N/A   Clear
6:55 PM 77.0 °F - 68.0 °F 74% 30.08 in 10.0 mi Calm Calm - N/A   Clear
7:15 PM 73.4 °F - 68.0 °F 83% 30.09 in 10.0 mi Calm Calm - N/A   Clear
7:35 PM 73.4 °F - 68.0 °F 83% 30.09 in 10.0 mi Calm Calm - N/A   Clear
7:55 PM 71.6 °F - 66.2 °F 83% 30.09 in 10.0 mi Calm Calm - N/A   Clear
8:15 PM 71.6 °F - 66.2 °F 83% 30.09 in 7.0 mi Calm Calm - N/A   Clear
8:35 PM 69.8 °F - 66.2 °F 88% 30.10 in 10.0 mi SSE 4.6 mph - N/A   Clear
8:55 PM 69.8 °F - 66.2 °F 88% 30.11 in 10.0 mi SSE 3.5 mph - N/A   Clear
9:15 PM 71.6 °F - 66.2 °F 83% 30.11 in 10.0 mi South 4.6 mph - N/A   Clear
9:35 PM 71.6 °F - 66.2 °F 83% 30.11 in 10.0 mi Calm Calm - N/A   Scattered Clouds
9:55 PM 71.6 °F - 68.0 °F 88% 30.11 in 10.0 mi SSE 3.5 mph - N/A   Scattered Clouds
10:15 PM 69.8 °F - 68.0 °F 94% 30.12 in 10.0 mi South 3.5 mph - N/A   Clear
10:35 PM 69.8 °F - 68.0 °F 94% 30.11 in 10.0 mi SSE 3.5 mph - N/A   Clear
10:55 PM 69.8 °F - 68.0 °F 94% 30.12 in 10.0 mi Calm Calm - N/A   Clear
11:15 PM 69.8 °F - 68.0 °F 94% 30.12 in 10.0 mi Calm Calm - N/A   Clear
11:35 PM - - - N/A% 30.12 in - Calm Calm - N/A   Unknown
11:55 PM 68.0 °F - 68.0 °F 100% 30.12 in 10.0 mi Calm Calm - N/A   Clear